ICE431 EGPF-BIKF

Flight info

Callsign ICE431
Flight time N/A
Altitude 24000
Route CLYDE Q602 BRUCE/N0433F380 DCT ATSIX/M076F380 DCT ALDAN DCT ASRUN ASRUN3K
Aircraft B752/M-SDE3FGHIM3RWXY/LB1

Departure

Time N/A
Airport Glasgow Airport (EGPF)

Arrival

Time 2026-04-30 13:13
Airport Keflavik International Airport (BIKF)
Time Latitude Longitude Altitude Speed Heading
2026-04-30 12:33 62.19188 -16.10108 38040 ft 433 kts 298°
2026-04-30 12:33 62.20864 -16.15461 38037 ft 434 kts 298°
2026-04-30 12:33 62.24206 -16.26162 38022 ft 434 kts 298°
2026-04-30 12:34 62.27530 -16.36856 38034 ft 433 kts 298°
2026-04-30 12:34 62.30843 -16.47560 38025 ft 432 kts 298°
2026-04-30 12:35 62.34140 -16.58271 38022 ft 432 kts 298°
2026-04-30 12:35 62.37447 -16.69062 38010 ft 432 kts 297°
2026-04-30 12:36 62.40715 -16.79776 38016 ft 432 kts 297°
2026-04-30 12:36 62.43998 -16.90589 38012 ft 433 kts 297°
2026-04-30 12:37 62.47278 -17.01444 38006 ft 432 kts 298°
2026-04-30 12:37 62.50532 -17.12262 37997 ft 431 kts 297°
2026-04-30 12:38 62.53773 -17.23091 38007 ft 431 kts 297°
2026-04-30 12:38 62.57011 -17.33962 38001 ft 430 kts 297°
2026-04-30 12:39 62.60219 -17.44783 37987 ft 430 kts 297°
2026-04-30 12:39 62.63437 -17.55688 37988 ft 429 kts 297°
2026-04-30 12:40 62.66633 -17.66573 37993 ft 428 kts 297°
2026-04-30 12:40 62.69816 -17.77467 37989 ft 427 kts 297°
2026-04-30 12:41 62.72964 -17.88293 38000 ft 426 kts 297°
2026-04-30 12:41 62.76118 -17.99189 37984 ft 427 kts 297°
2026-04-30 12:42 62.79252 -18.10070 37990 ft 426 kts 297°
2026-04-30 12:42 62.82390 -18.21014 37985 ft 426 kts 297°
2026-04-30 12:43 62.85510 -18.31951 37989 ft 426 kts 297°
2026-04-30 12:43 62.88625 -18.42927 37978 ft 426 kts 297°
2026-04-30 12:44 62.91723 -18.53892 37979 ft 427 kts 297°
2026-04-30 12:44 62.94826 -18.64929 37969 ft 427 kts 297°
2026-04-30 12:45 62.97944 -18.76052 37973 ft 427 kts 298°
2026-04-30 12:45 63.01389 -18.86598 37973 ft 430 kts 301°
2026-04-30 12:46 63.04889 -18.97247 37957 ft 431 kts 301°
2026-04-30 12:46 63.06642 -19.02606 37647 ft 433 kts 301°
2026-04-30 12:46 63.08367 -19.07874 37447 ft 421 kts 301°
2026-04-30 12:47 63.10064 -19.13090 36923 ft 420 kts 301°
2026-04-30 12:47 63.11776 -19.18363 36367 ft 418 kts 300°
2026-04-30 12:47 63.13445 -19.23514 35840 ft 416 kts 301°
2026-04-30 12:47 63.15126 -19.28713 35323 ft 414 kts 300°
2026-04-30 12:48 63.16782 -19.33849 34786 ft 412 kts 300°
2026-04-30 12:48 63.18433 -19.38979 34247 ft 408 kts 300°
2026-04-30 12:48 63.20042 -19.43986 33729 ft 402 kts 300°
2026-04-30 12:48 63.21652 -19.49019 33213 ft 403 kts 300°
2026-04-30 12:49 63.23278 -19.54114 32716 ft 407 kts 301°
2026-04-30 12:49 63.24889 -19.59165 32212 ft 408 kts 301°
2026-04-30 12:49 63.26512 -19.64263 31686 ft 405 kts 301°
2026-04-30 12:49 63.28131 -19.69360 31164 ft 399 kts 300°
2026-04-30 12:50 63.29718 -19.74367 30666 ft 394 kts 300°
2026-04-30 12:50 63.31273 -19.79288 30167 ft 389 kts 300°
2026-04-30 12:50 63.32801 -19.84126 29653 ft 382 kts 300°
2026-04-30 12:50 63.34305 -19.88902 29143 ft 375 kts 300°
2026-04-30 12:51 63.35782 -19.93606 28599 ft 370 kts 300°
2026-04-30 12:51 63.37235 -19.98242 28043 ft 366 kts 300°
2026-04-30 12:51 63.38679 -20.02858 27476 ft 363 kts 300°
2026-04-30 12:51 63.40118 -20.07468 26912 ft 360 kts 300°
2026-04-30 12:52 63.41512 -20.11942 26375 ft 355 kts 300°
2026-04-30 12:52 63.42901 -20.16411 25839 ft 351 kts 300°
2026-04-30 12:52 63.44283 -20.20865 25338 ft 348 kts 300°
2026-04-30 12:52 63.45643 -20.25256 24841 ft 343 kts 300°
2026-04-30 12:53 63.46984 -20.29595 24364 ft 340 kts 300°
2026-04-30 12:53 63.48315 -20.33907 23890 ft 337 kts 300°
2026-04-30 12:53 63.49633 -20.38187 23434 ft 335 kts 299°
2026-04-30 12:53 63.50948 -20.42470 22975 ft 334 kts 300°
2026-04-30 12:54 63.52242 -20.46688 22534 ft 333 kts 300°
2026-04-30 12:54 63.53553 -20.50970 22080 ft 331 kts 299°
2026-04-30 12:54 63.54843 -20.55191 21652 ft 329 kts 299°
2026-04-30 12:54 63.56064 -20.59485 21246 ft 326 kts 294°
2026-04-30 12:55 63.57072 -20.64037 20806 ft 327 kts 292°
2026-04-30 12:55 63.58082 -20.68606 20369 ft 325 kts 291°
2026-04-30 12:55 63.59069 -20.73060 19941 ft 321 kts 291°
2026-04-30 12:55 63.60057 -20.77525 19519 ft 321 kts 291°
2026-04-30 12:56 63.61047 -20.82012 19090 ft 321 kts 291°
2026-04-30 12:56 63.62022 -20.86431 18662 ft 320 kts 291°
2026-04-30 12:56 63.63010 -20.90919 18232 ft 318 kts 291°
2026-04-30 12:56 63.63984 -20.95360 17814 ft 317 kts 291°
2026-04-30 12:57 63.64949 -20.99762 17402 ft 315 kts 291°
2026-04-30 12:57 63.65909 -21.04145 16993 ft 313 kts 291°
2026-04-30 12:57 63.66992 -21.08374 16609 ft 316 kts 301°
2026-04-30 12:57 63.68365 -21.12265 16182 ft 320 kts 303°
2026-04-30 12:58 63.69740 -21.16168 15739 ft 318 kts 303°
2026-04-30 12:58 63.71108 -21.20041 15300 ft 315 kts 303°
2026-04-30 12:58 63.72452 -21.23848 14877 ft 313 kts 303°
2026-04-30 12:58 63.73799 -21.27665 14459 ft 312 kts 303°
2026-04-30 12:59 63.75146 -21.31484 14047 ft 310 kts 303°
2026-04-30 12:59 63.76482 -21.35280 13704 ft 308 kts 303°
2026-04-30 12:59 63.77784 -21.38977 13684 ft 305 kts 303°
2026-04-30 12:59 63.79118 -21.42784 13686 ft 311 kts 303°
2026-04-30 13:00 63.80467 -21.46635 13679 ft 312 kts 303°
2026-04-30 13:00 63.81803 -21.50448 13672 ft 310 kts 303°
2026-04-30 13:00 63.83145 -21.54295 13309 ft 318 kts 304°
2026-04-30 13:00 63.84512 -21.58212 12801 ft 313 kts 304°
2026-04-30 13:01 63.85825 -21.61973 12288 ft 305 kts 304°
2026-04-30 13:01 63.87134 -21.65710 11763 ft 302 kts 303°
2026-04-30 13:01 63.88444 -21.69457 11242 ft 302 kts 303°
2026-04-30 13:01 63.89726 -21.73128 10730 ft 300 kts 303°
2026-04-30 13:02 63.91022 -21.76845 10208 ft 296 kts 304°
2026-04-30 13:02 63.92270 -21.80442 9782 ft 291 kts 303°
2026-04-30 13:02 63.93501 -21.84034 9386 ft 286 kts 303°
2026-04-30 13:02 63.94710 -21.87561 8916 ft 275 kts 303°
2026-04-30 13:03 63.95852 -21.90893 8459 ft 261 kts 303°
2026-04-30 13:03 63.96927 -21.94037 8293 ft 243 kts 303°
2026-04-30 13:03 63.97946 -21.97035 8065 ft 249 kts 302°
2026-04-30 13:03 63.99035 -22.00254 7655 ft 258 kts 303°
2026-04-30 13:04 64.00110 -22.03409 7344 ft 254 kts 303°
2026-04-30 13:04 64.01193 -22.06599 6963 ft 253 kts 303°
2026-04-30 13:04 64.02257 -22.09727 6666 ft 252 kts 303°
2026-04-30 13:04 64.03335 -22.12901 6333 ft 254 kts 303°
2026-04-30 13:05 64.04411 -22.16065 6020 ft 252 kts 303°
2026-04-30 13:05 64.05474 -22.19196 5699 ft 250 kts 303°
2026-04-30 13:05 64.06527 -22.22300 5541 ft 242 kts 303°
2026-04-30 13:06 64.08491 -22.28105 5211 ft 229 kts 302°
2026-04-30 13:06 64.09521 -22.30840 4935 ft 232 kts 315°
2026-04-30 13:06 64.10802 -22.33094 4664 ft 232 kts 317°
2026-04-30 13:06 64.12082 -22.35326 4359 ft 232 kts 317°
2026-04-30 13:07 64.13359 -22.37546 4085 ft 230 kts 317°
2026-04-30 13:07 64.14638 -22.39753 3795 ft 230 kts 318°
2026-04-30 13:07 64.15912 -22.41947 3538 ft 227 kts 316°
2026-04-30 13:07 64.16884 -22.44652 3189 ft 218 kts 286°
2026-04-30 13:08 64.16997 -22.47919 3009 ft 200 kts 251°
2026-04-30 13:08 64.16400 -22.50725 3010 ft 201 kts 238°
2026-04-30 13:08 64.15659 -22.53441 3014 ft 205 kts 238°
2026-04-30 13:08 64.14895 -22.56140 2945 ft 197 kts 231°
2026-04-30 13:09 64.13821 -22.57951 2809 ft 190 kts 209°
2026-04-30 13:09 64.12644 -22.59180 2663 ft 182 kts 208°
2026-04-30 13:09 64.11498 -22.60306 2509 ft 177 kts 199°
2026-04-30 13:09 64.10284 -22.60509 2366 ft 175 kts 186°
2026-04-30 13:10 64.09075 -22.60525 2177 ft 170 kts 187°
2026-04-30 13:10 64.07935 -22.60545 1944 ft 161 kts 187°
2026-04-30 13:10 64.06886 -22.60532 1754 ft 141 kts 187°
2026-04-30 13:10 64.05967 -22.60528 1548 ft 124 kts 189°
2026-04-30 13:11 64.05167 -22.60536 1344 ft 112 kts 189°
2026-04-30 13:11 64.04377 -22.60553 1224 ft 116 kts 189°
2026-04-30 13:11 64.03558 -22.60562 1072 ft 118 kts 188°
2026-04-30 13:11 64.02743 -22.60557 909 ft 117 kts 188°
2026-04-30 13:12 64.01923 -22.60548 748 ft 117 kts 188°
2026-04-30 13:12 64.01111 -22.60541 591 ft 117 kts 188°
2026-04-30 13:12 64.00307 -22.60550 435 ft 117 kts 189°
2026-04-30 13:13 63.98706 -22.60531 174 ft 106 kts 187°
2026-04-30 13:13 63.98164 -22.60560 174 ft 53 kts 182°
2026-04-30 13:13 63.97733 -22.60565 171 ft 17 kts 179°
2026-04-30 13:14 63.97595 -22.60564 169 ft 21 kts 181°
2026-04-30 13:14 63.97457 -22.60622 166 ft 18 kts 229°
2026-04-30 13:14 63.97488 -22.61189 158 ft 19 kts 283°
2026-04-30 13:15 63.97528 -22.61527 149 ft 24 kts 284°
2026-04-30 13:15 63.97592 -22.62090 140 ft 16 kts 289°
2026-04-30 13:15 63.97628 -22.62353 137 ft 18 kts 286°
2026-04-30 13:16 63.97661 -22.62647 136 ft 20 kts 285°
2026-04-30 13:16 63.97700 -22.62965 133 ft 21 kts 285°
2026-04-30 13:16 63.97741 -22.63306 131 ft 23 kts 287°
2026-04-30 13:17 63.97830 -22.64068 126 ft 26 kts 285°
2026-04-30 13:17 63.97879 -22.64487 122 ft 28 kts 285°
2026-04-30 13:17 63.97968 -22.65273 115 ft 24 kts 283°
2026-04-30 13:18 63.98008 -22.65456 114 ft 8 kts 332°
2026-04-30 13:18 63.98177 -22.65479 115 ft 18 kts 359°
2026-04-30 13:18 63.98303 -22.65481 116 ft 18 kts 359°
2026-04-30 13:19 63.98428 -22.65480 116 ft 17 kts
2026-04-30 13:19 63.98552 -22.65479 116 ft 17 kts
2026-04-30 13:19 63.98675 -22.65475 115 ft 18 kts 359°
2026-04-30 13:19 63.98795 -22.65479 115 ft 13 kts 359°
2026-04-30 13:20 63.98849 -22.65379 115 ft 10 kts 78°
2026-04-30 13:20 63.98855 -22.65170 117 ft 15 kts 89°
2026-04-30 13:20 63.98855 -22.64914 119 ft 18 kts 90°
2026-04-30 13:20 63.98853 -22.64544 122 ft 27 kts 90°
2026-04-30 13:21 63.98851 -22.64102 126 ft 27 kts 89°
2026-04-30 13:21 63.98850 -22.63714 131 ft 23 kts 90°
2026-04-30 13:21 63.98851 -22.63350 135 ft 22 kts 89°
2026-04-30 13:22 63.98904 -22.62870 140 ft 14 kts 21°
2026-04-30 13:22 63.99022 -22.62789 142 ft 19 kts 15°
2026-04-30 13:22 63.99175 -22.62546 145 ft 14 kts 86°
2026-04-30 13:23 63.99185 -22.62354 147 ft 5 kts 55°
2026-04-30 13:23 63.99258 -22.62314 147 ft 4 kts 358°
2026-04-30 13:24 63.99280 -22.62314 147 ft 0 kts